Wind_Speed
38 41 44 47 49 52 55 59 63 67 72 75 79 80 77 71 65 62 62 63 65 61 57 58 59 61 62 63 64 63 61 59 59 61 60 61 62 65 66 68 69 68 67
44 46 48 51 54 58 61 66 71 75 78 71 56 50 46 47 47 47 47 48 49 49 48 50 52 55 57 58 59 59 59 58 59 60 60 61 61 63 63 63 59 55 53
48 51 55 58 59 63 68 73 76 62 43 37 36 34 34 34 35 36 37 39 41 43 45 46 48 51 53 55 56 57 57 57 56 57 57 58 58 58 56 52 46 44 44
53 56 58 59 63 68 72 54 34 27 24 22 23 25 27 31 33 35 38 41 46 48 50 51 51 52 53 54 55 54 54 53 54 52 52 52 51 50 47 45 36 35 32
57 58 59 63 67 56 26 18 14 13 17 21 24 28 32 35 38 40 42 46 51 54 56 58 59 58 57 56 55 54 54 51 50 51 48 47 44 43 41 37 32 28 26
59 61 63 57 23 10 7 8 14 18 22 24 27 31 34 38 41 43 48 54 55 58 61 62 62 61 58 56 55 52 52 51 48 46 44 42 38 36 36 30 24 21 20
57 43 19 3 4 8 12 15 17 21 25 30 31 36 38 45 45 49 54 57 62 64 66 66 64 61 57 54 51 50 48 46 44 43 41 38 34 32 29 26 17 17 14
5 6 10 11 10 13 16 18 23 26 29 34 38 42 43 50 52 57 63 63 69 69 69 67 63 58 53 49 47 45 44 41 38 37 35 33 31 28 24 21 17 12 11
18 18 14 12 14 18 22 24 25 30 34 38 42 47 50 53 57 61 65 70 76 75 72 68 61 55 49 45 42 40 39 36 35 32 31 29 28 25 21 18 14 10 9
22 20 16 15 17 19 23 28 31 35 36 41 48 54 58 59 61 66 70 75 76 74 71 66 60 53 48 41 38 35 33 33 31 29 28 26 25 22 19 16 15 12 12
22 19 19 19 19 21 25 29 33 36 41 48 53 58 63 68 69 73 77 82 81 76 70 63 57 50 44 40 36 31 29 28 27 26 25 25 24 22 19 14 16 14 15
18 18 19 18 20 25 28 31 35 39 45 50 55 62 65 73 77 79 82 86 82 74 66 59 51 45 41 38 34 30 27 25 24 24 22 21 22 22 20 15 17 18 19
20 19 17 20 23 26 29 34 39 43 49 53 60 67 71 78 83 83 86 89 82 73 63 54 47 42 37 33 30 29 26 22 21 21 22 19 20 22 21 16 17 22 25
18 18 20 22 24 26 30 34 41 47 53 58 65 73 78 81 87 88 90 91 83 72 62 53 46 42 37 34 29 25 22 20 18 17 19 19 19 21 22 19 18 25 30
14 18 21 22 24 28 31 36 43 49 55 62 68 73 80 87 91 91 93 92 83 71 60 51 45 41 37 33 28 24 20 17 15 14 15 17 17 19 23 22 19 29 34
15 17 18 20 23 26 32 39 45 51 59 66 71 76 81 90 93 95 95 94 83 70 57 50 45 41 37 32 28 23 19 14 13 11 12 14 16 18 23 25 22 30 37
12 14 16 20 26 29 35 42 49 56 64 68 73 79 83 94 94 99 98 95 83 69 57 49 45 40 35 31 27 24 18 14 11 8 8 10 13 17 23 26 25 30 38
10 11 14 20 26 32 39 46 54 62 67 71 77 81 85 95 95 101 99 95 84 70 57 50 44 39 35 30 26 22 18 13 9 6 4 8 12 16 21 27 29 30 38
9 11 15 22 27 34 40 47 53 62 68 72 77 80 87 94 97 102 100 95 83 69 58 50 44 39 34 29 25 21 17 12 8 4 1 6 10 15 20 28 32 31 37
12 13 17 24 31 37 43 50 57 63 68 74 80 84 91 97 99 104 101 94 83 69 58 51 44 39 34 28 24 20 16 12 7 3 2 5 9 14 19 27 34 33 37
17 18 21 26 32 39 46 51 58 63 69 75 80 85 91 95 98 102 101 94 83 69 59 52 45 38 33 27 24 20 15 11 8 4 4 6 10 13 18 25 33 36 36
19 23 28 29 34 41 47 54 61 68 73 79 84 87 92 96 99 102 100 93 83 70 58 51 44 38 31 26 23 18 14 10 8 6 6 7 10 14 18 24 31 36 36
23 28 30 33 38 45 52 56 63 68 75 79 85 90 94 98 99 101 98 91 83 68 58 51 43 36 31 26 22 18 14 11 9 8 8 8 11 15 19 23 29 35 37
26 30 34 39 43 48 55 61 66 71 76 82 86 90 93 97 98 101 97 92 81 66 57 49 41 35 30 25 21 18 13 10 10 9 9 10 12 16 19 22 26 32 36
30 33 39 43 47 50 58 64 69 75 79 84 88 91 92 94 96 100 96 89 79 66 56 47 39 33 28 24 20 17 13 11 11 11 11 12 14 16 19 21 24 28 33
36 39 45 49 52 56 60 66 69 74 77 81 86 88 93 96 96 99 93 88 78 64 54 45 37 32 26 23 18 15 12 10 10 11 13 14 15 17 20 22 23 26 30
Wind_Direction
274 277 280 283 284 285 287 291 293 293 293 292 291 290 288 289 290 290 289 286 288 289 288 286 285 284 283 282 281 281 281 281 281 280 280 281 281 284 288 289 289 285 282
278 281 286 291 292 292 294 296 297 298 297 297 296 299 298 296 297 296 295 294 294 294 294 292 291 289 287 286 285 284 284 282 280 281 281 281 284 286 290 292 290 287 285
288 292 293 293 295 297 298 300 300 300 302 304 304 307 308 305 304 305 307 310 311 310 308 304 300 297 294 292 290 289 287 285 283 282 282 281 282 285 290 296 292 290 287
289 291 293 296 298 300 302 303 305 306 309 319 324 326 328 327 325 325 324 324 324 320 316 312 308 303 298 294 290 288 286 285 284 283 281 282 283 287 295 297 294 292 289
289 291 295 298 301 304 308 308 315 336 339 334 336 340 339 339 334 330 331 330 327 324 320 317 312 308 304 299 295 291 289 287 284 283 282 281 281 287 297 295 297 297 296
291 293 295 299 305 305 339 14 12 358 359 359 350 346 347 346 343 340 339 336 332 328 322 317 314 309 305 301 297 293 291 288 285 282 280 279 279 282 294 293 295 290 295
290 293 297 297 79 64 36 25 16 12 5 1 356 353 352 350 347 343 342 338 335 330 324 319 314 310 306 302 297 293 289 286 283 280 278 275 272 276 291 289 284 273 260
280 123 117 98 75 47 36 27 20 13 8 5 359 356 352 352 350 347 343 340 337 331 325 320 317 313 309 303 298 293 289 286 279 275 272 268 264 268 285 279 275 264 251
116 110 100 88 68 44 30 22 17 9 5 2 359 358 355 353 350 346 345 342 339 332 327 324 321 317 313 307 300 293 289 285 280 274 269 262 256 260 274 269 257 241 231
106 103 93 72 52 36 29 27 19 13 8 5 4 1 359 355 351 348 346 343 338 332 329 327 324 320 316 311 304 296 288 282 278 273 266 258 249 248 259 257 238 217 202
102 92 72 58 46 39 31 23 15 10 5 2 2 359 358 357 352 350 348 345 339 335 332 330 326 323 320 315 309 301 290 281 276 270 262 254 246 237 243 247 222 210 197
93 76 66 53 43 33 28 20 14 10 7 4 360 359 358 358 354 352 349 345 341 338 336 333 329 326 323 320 313 306 295 284 274 268 261 248 242 234 230 234 214 205 188
82 73 60 46 43 35 23 16 10 7 4 4 1 360 359 358 356 353 350 346 344 341 339 336 333 331 328 322 316 308 300 290 275 263 257 246 237 228 220 221 207 198 181
78 68 58 47 36 26 18 13 11 10 5 2 3 2 359 358 357 353 351 348 346 345 343 341 338 335 332 328 324 315 303 292 279 263 254 247 233 223 214 209 200 189 179
75 57 43 33 24 19 12 9 6 5 2 0 360 358 357 358 357 354 352 350 349 347 345 343 340 338 335 333 329 322 312 297 282 265 250 242 236 220 207 199 194 185 178
62 49 31 19 16 11 6 4 2 360 358 357 356 357 356 357 357 355 353 351 350 349 348 345 343 342 339 336 333 329 320 307 290 273 256 240 230 216 202 193 187 183 180
59 40 19 10 8 2 357 357 357 356 356 354 355 355 356 357 356 355 354 352 352 351 350 348 347 344 342 339 336 334 330 322 308 287 253 237 217 209 199 190 182 181 181
32 16 2 360 358 354 355 354 353 353 354 353 353 354 355 356 356 355 354 353 353 352 351 350 349 347 345 344 342 342 340 335 324 303 252 213 201 200 192 186 181 179 179
354 344 343 349 349 349 350 351 348 348 350 351 351 352 354 356 356 355 355 353 354 353 353 352 351 349 349 349 349 348 344 344 344 345 166 186 189 188 186 183 181 177 178
312 323 334 340 342 344 346 346 345 346 349 350 351 352 353 355 356 354 354 353 354 354 353 353 353 351 352 353 355 355 354 359 2 11 109 143 160 174 177 180 179 176 176
313 321 329 330 335 340 344 343 343 346 348 348 350 352 352 354 355 353 354 353 354 354 353 353 353 353 353 354 356 358 359 5 19 43 95 130 146 162 169 173 177 176 174
304 314 321 325 331 339 339 340 343 346 347 348 349 350 352 353 353 353 353 353 354 354 353 353 353 353 355 356 358 3 9 18 34 61 99 125 139 151 163 167 173 177 176
298 309 315 320 327 334 335 337 339 342 344 345 347 348 350 352 351 352 352 353 354 352 352 353 353 354 355 358 1 7 12 25 46 69 92 116 137 146 155 164 169 175 177
297 306 311 317 324 329 332 334 336 338 341 342 345 346 349 350 349 351 352 353 353 352 353 353 352 355 357 0 4 11 19 40 64 78 94 111 130 142 150 158 166 172 177
297 305 310 313 319 326 328 328 332 334 338 341 343 344 347 350 348 350 351 352 353 353 353 353 354 358 358 1 8 16 28 53 73 86 99 110 120 133 145 150 159 169 175
290 298 306 309 313 320 324 327 330 332 335 339 341 342 345 348 347 350 350 350 353 353 353 353 355 359 1 4 10 20 34 61 83 97 106 114 120 129 140 147 153 160 170
Height
10649 10647 10645 10642 10638 10634 10630 10625 10619 10611 10603 10594 10585 10575 10564 10555 10547 10539 10531 10524 10516 10506 10496 10486 10478 10470 10463 10456 10448 10441 10435 10430 10422 10414 10410 10402 10398 10391 10384 10377 10369 10360 10352
10638 10635 10633 10629 10625 10620 10615 10608 10600 10591 10580 10571 10561 10554 10547 10541 10534 10525 10517 10508 10499 10489 10480 10472 10463 10454 10446 10437 10428 10422 10415 10411 10404 10397 10392 10386 10381 10375 10368 10361 10351 10343 10335
10624 10621 10618 10614 10610 10604 10597 10589 10580 10570 10563 10557 10551 10545 10539 10532 10525 10516 10507 10498 10488 10478 10468 10458 10448 10438 10428 10419 10410 10403 10397 10391 10386 10380 10375 10370 10366 10361 10356 10347 10338 10331 10324
10611 10608 10604 10600 10596 10589 10581 10572 10566 10562 10557 10551 10546 10541 10534 10526 10517 10508 10498 10487 10476 10465 10454 10443 10432 10422 10411 10402 10393 10386 10379 10373 10368 10363 10359 10354 10351 10347 10341 10332 10327 10320 10315
10598 10595 10592 10587 10581 10574 10569 10566 10562 10558 10553 10548 10541 10534 10527 10518 10509 10499 10488 10477 10465 10452 10438 10426 10414 10403 10392 10382 10374 10367 10359 10355 10350 10345 10342 10339 10337 10334 10329 10322 10316 10311 10305
10583 10581 10578 10574 10570 10568 10565 10562 10558 10554 10549 10543 10537 10529 10521 10511 10500 10489 10477 10465 10452 10438 10423 10409 10396 10383 10372 10362 10354 10347 10341 10336 10332 10329 10327 10325 10324 10322 10319 10314 10309 10305 10302
10568 10567 10566 10567 10566 10565 10562 10559 10556 10551 10546 10539 10532 10524 10514 10503 10492 10480 10467 10454 10439 10424 10407 10392 10377 10365 10353 10344 10336 10329 10324 10320 10317 10314 10313 10311 10312 10312 10311 10306 10303 10300 10297
10559 10562 10564 10565 10565 10563 10561 10558 10554 10549 10543 10536 10527 10517 10507 10495 10482 10469 10454 10439 10424 10408 10391 10374 10359 10346 10336 10326 10319 10312 10307 10305 10303 10301 10300 10300 10301 10302 10302 10299 10297 10294 10293
10559 10562 10564 10565 10565 10563 10560 10556 10552 10547 10540 10532 10524 10513 10501 10488 10475 10461 10445 10427 10407 10387 10370 10354 10341 10329 10319 10310 10303 10297 10292 10290 10288 10288 10288 10289 10290 10293 10293 10292 10291 10290 10290
10562 10564 10566 10567 10565 10562 10559 10555 10550 10544 10538 10530 10519 10507 10495 10480 10466 10451 10433 10415 10397 10375 10354 10336 10323 10311 10301 10295 10289 10283 10279 10277 10276 10276 10276 10277 10280 10284 10285 10285 10285 10286 10287
10565 10567 10567 10566 10565 10562 10559 10554 10549 10542 10533 10523 10511 10499 10486 10472 10455 10438 10419 10398 10376 10356 10337 10321 10308 10297 10288 10280 10274 10271 10268 10266 10265 10265 10266 10267 10270 10274 10277 10278 10279 10281 10284
10568 10568 10568 10567 10565 10560 10557 10552 10546 10537 10528 10518 10507 10495 10480 10463 10445 10426 10407 10385 10363 10342 10325 10310 10297 10287 10277 10269 10264 10260 10257 10256 10255 10255 10256 10258 10261 10265 10269 10271 10273 10276 10280
10570 10570 10569 10567 10563 10559 10555 10549 10541 10533 10524 10513 10501 10486 10470 10454 10436 10418 10397 10374 10351 10331 10314 10300 10288 10278 10270 10263 10257 10251 10248 10247 10246 10246 10246 10249 10252 10256 10261 10265 10267 10271 10276
10572 10571 10568 10564 10561 10557 10551 10545 10537 10528 10518 10506 10493 10478 10463 10446 10428 10408 10386 10362 10339 10319 10303 10289 10278 10269 10262 10254 10249 10244 10241 10238 10238 10238 10239 10241 10244 10248 10253 10259 10262 10267 10273
10573 10569 10566 10563 10559 10554 10549 10541 10532 10523 10512 10500 10487 10472 10456 10438 10420 10400 10378 10355 10332 10312 10296 10283 10272 10263 10254 10247 10242 10237 10233 10232 10231 10231 10232 10234 10237 10241 10246 10252 10257 10262 10269
10572 10568 10565 10561 10557 10552 10544 10536 10528 10519 10507 10495 10481 10466 10450 10432 10412 10391 10369 10345 10324 10306 10291 10279 10268 10258 10249 10241 10235 10231 10227 10226 10225 10225 10226 10228 10231 10235 10240 10246 10252 10258 10265
10570 10567 10564 10560 10554 10547 10539 10532 10522 10512 10501 10488 10475 10459 10443 10424 10403 10382 10361 10339 10320 10302 10287 10275 10264 10254 10245 10238 10231 10226 10223 10221 10220 10220 10221 10222 10225 10229 10234 10241 10248 10254 10263
10569 10566 10562 10556 10550 10544 10536 10527 10517 10506 10496 10483 10469 10453 10436 10418 10398 10378 10357 10334 10313 10297 10284 10272 10261 10251 10243 10235 10229 10224 10220 10218 10216 10216 10217 10218 10220 10224 10229 10237 10244 10251 10260
10567 10563 10559 10553 10546 10540 10532 10524 10515 10505 10492 10480 10466 10449 10433 10415 10393 10374 10352 10330 10312 10295 10281 10270 10259 10250 10241 10234 10227 10222 10218 10216 10214 10214 10215 10216 10218 10221 10226 10233 10241 10249 10257
10565 10560 10555 10549 10543 10535 10528 10520 10511 10500 10487 10474 10459 10442 10425 10406 10388 10367 10349 10328 10310 10293 10279 10268 10258 10248 10240 10233 10227 10222 10218 10215 10214 10213 10214 10215 10217 10219 10224 10230 10238 10247 10255
10561 10557 10551 10545 10539 10531 10523 10516 10507 10496 10484 10471 10456 10441 10425 10407 10388 10367 10345 10325 10308 10292 10278 10266 10256 10248 10240 10233 10227 10223 10219 10216 10214 10213 10213 10215 10217 10219 10223 10229 10237 10246 10254
10557 10552 10547 10541 10534 10526 10518 10510 10499 10489 10477 10464 10451 10436 10420 10401 10382 10363 10342 10324 10306 10290 10278 10267 10256 10247 10240 10234 10228 10223 10220 10216 10215 10213 10213 10215 10217 10221 10224 10229 10236 10245 10253
10552 10548 10542 10536 10530 10522 10514 10505 10496 10486 10474 10460 10446 10430 10414 10396 10378 10361 10342 10322 10304 10290 10277 10266 10256 10247 10240 10234 10229 10224 10221 10218 10217 10216 10215 10216 10219 10222 10225 10230 10236 10244 10252
10548 10544 10538 10531 10525 10518 10508 10499 10491 10480 10469 10455 10441 10427 10411 10393 10374 10358 10338 10319 10304 10290 10277 10266 10256 10248 10241 10236 10231 10226 10223 10221 10219 10218 10218 10219 10221 10224 10228 10232 10237 10245 10252
10544 10538 10532 10526 10519 10513 10504 10495 10485 10474 10463 10449 10435 10421 10410 10394 10373 10355 10335 10319 10303 10287 10276 10266 10256 10248 10243 10238 10233 10229 10226 10224 10222 10222 10222 10223 10225 10228 10231 10235 10240 10246 10253
10538 10533 10527 10520 10513 10508 10500 10490 10481 10470 10460 10450 10436 10419 10402 10386 10369 10352 10333 10316 10301 10287 10277 10265 10256 10249 10244 10240 10235 10232 10229 10228 10226 10226 10226 10227 10229 10232 10235 10238 10243 10248 10254